Location: New Plymouth
(39.0670°S, 174.0830°E)
Time: 19:46:14
(UTC+13:00)

BREEZE-M DEB (TANK) - Pass Details

Date: 24 January 2019
Orbit: 278 x 14014 km, 46.1° (Epoch: 16 February)

Event Time Altitude Azimuth Distance (km) Brightness Sun altitude
Rises 22:18:33 0° 286° (WNW) 4,495 7.4 -15.7°
Reaches altitude 10° 22:22:55 10° 280° (W) 2,393 6.1 -16.3°
Maximum altitude 22:27:12 43° 207° (SSW) 594 3.0 -16.9°
Enters shadow 22:29:09 12° 132° (SE) 1,110 3.8 -17.2°
